Tracking 29892 objects as of 21-Nov-2024
HD Live streaming from Space Station
objects crossing your sky now

STARLINK-4316

Track STARLINK-4316 now!
10-day predictions
STARLINK-4316 is classified as:


NORAD ID: 53471
Int'l Code: 2022-099G
Perigee: 569.6 km
Apogee: 570.5 km
Inclination: 97.7 °
Period: 95.9 minutes
Semi major axis: 6941 km
RCS: Unknown
Launch date: August 12, 2022
Source: United States (US)
Launch site: AIR FORCE WESTERN TEST RANGE (AFWTR)
Your satellite tracking list
Your tracking list is empty




NASA's NSSDC Master Catalog

Two Line Element Set (TLE):
1 53471U 22099G   24325.75154011 -.00004786  00000-0 -36797-3 0  9994
2 53471  97.6558  84.3573 0000690 133.4891 226.6391 15.01289556124879
Source of the keplerian elements: AFSPC